Location: Le Rocchette
(44.3500°N, 7.8333°E)
Time: 12:46:42
(UTC+00:00)

PSLV R/B - Pass Details

Date: 23 February 2020
Orbit: 505 x 578 km, 97.8° (Epoch: 05 April)

Event Time Altitude Azimuth Distance (km) Brightness Sun altitude
Rises 04:42:22 0° 13° (NNE) 2,640 7.5 -17.7°
Reaches altitude 10° 04:44:27 10° 14° (NNE) 1,757 6.6 -17.3°
Maximum altitude 04:48:15 83° 101° (E) 535 3.7 -16.6°
Drops below altitude 10° 04:52:05 10° 192° (SSW) 1,780 6.3 -15.9°
Sets 04:54:13 0° 193° (SSW) 2,679 7.2 -15.5°
